Temp
62 62 62 62 62 62 62 62 62 62 62 62 62 62 62 62 61 58 57 72 71 78 80 76 75 74 74 73 79 75 59 56 60 62 61 74 71 77 81 75 78 79 75 76 77
62 62 61 61 61 62 61 61 61 61 62 62 61 62 62 62 55 54 70 77 78 79 76 73 70 73 67 69 72 67 57 60 69 69 66 70 74 75 74 74 71 74 77 78 76
62 61 61 61 61 61 61 61 61 61 61 61 61 62 61 60 54 66 77 78 78 78 76 77 76 74 65 68 69 67 61 70 72 73 73 70 72 76 72 68 72 71 72 75 75
61 61 61 61 61 61 61 61 61 61 61 61 60 62 62 53 56 75 80 78 78 76 75 75 73 66 63 65 72 63 72 74 73 72 70 70 74 71 72 68 79 77 76 75 74
61 61 61 61 61 61 61 61 60 60 60 60 60 62 56 52 62 78 80 78 76 75 74 73 69 67 64 68 71 68 72 76 76 74 73 74 70 70 69 74 80 79 78 76 75
60 60 60 60 60 60 60 60 60 60 60 60 60 62 51 53 78 78 76 74 74 72 71 73 72 73 69 70 69 74 72 74 74 73 72 67 66 68 72 78 78 78 76 76 76
60 60 60 60 60 60 60 59 59 59 60 60 61 61 55 62 80 76 74 69 73 72 69 75 77 72 69 68 75 71 64 71 71 71 69 73 67 67 73 79 76 77 76 77 77
60 60 60 60 60 60 59 58 58 60 61 61 62 56 52 74 74 77 72 72 72 69 70 76 78 71 68 71 72 64 63 59 69 69 69 69 57 68 73 75 74 77 77 76 77
60 60 59 59 59 58 57 58 59 61 63 62 51 50 56 75 71 75 76 74 72 68 70 86 76 67 68 62 57 59 51 56 63 71 69 66 57 64 72 74 73 77 77 76 76
59 59 59 58 57 57 56 58 60 61 62 64 64 52 63 69 73 78 76 78 72 73 73 70 64 59 57 55 48 52 53 55 59 66 68 61 59 64 69 71 71 74 77 76 76
59 58 58 58 57 55 53 54 54 52 54 58 60 64 70 74 77 76 79 75 71 68 59 63 57 53 58 61 62 60 58 60 63 69 65 61 58 62 65 70 69 70 71 74 74
58 58 58 57 56 56 49 53 59 62 57 63 67 67 73 70 68 73 79 69 65 58 61 58 53 63 67 66 64 61 59 55 62 64 62 59 60 60 64 64 67 67 68 74 75
57 57 57 56 55 50 52 60 67 62 52 64 64 67 69 72 69 70 75 69 63 58 58 55 61 69 66 62 62 57 60 58 58 64 66 61 57 60 64 66 68 68 70 71 75
57 57 56 54 53 56 59 63 66 65 47 58 61 71 72 73 66 80 78 72 64 61 61 58 67 67 62 61 63 49 67 67 61 56 51 61 49 56 58 60 65 67 67 67 71
57 57 55 53 53 58 67 63 63 64 39 65 64 79 70 69 69 70 77 72 63 63 61 58 61 61 60 64 67 61 72 68 62 54 51 53 50 50 58 57 62 65 68 69 69
57 56 55 51 48 58 63 63 65 49 42 60 68 64 67 64 67 72 72 73 71 64 61 63 70 67 65 70 70 70 63 58 54 51 46 52 55 49 55 59 63 68 69 68 71
55 54 53 59 63 62 64 62 49 42 60 59 58 62 61 60 63 67 64 60 56 49 48 59 62 66 71 60 64 63 51 42 43 42 43 49 52 54 59 64 65 66 66 68 68
53 52 52 57 59 66 62 55 40 54 52 62 62 60 58 60 57 61 59 55 58 55 49 48 49 62 69 65 60 56 55 46 40 40 44 50 48 52 60 63 63 67 70 67 67
52 51 52 58 60 62 59 44 45 50 59 60 58 53 50 58 58 58 52 53 57 55 49 47 51 66 69 69 68 58 55 59 48 45 48 48 55 60 61 60 61 62 64 65 67
49 51 58 67 68 64 55 46 50 59 61 60 50 54 47 50 53 51 51 57 59 62 57 52 48 57 66 67 65 63 64 52 48 41 42 45 48 51 54 57 61 59 61 62 65
52 55 67 67 69 59 49 49 58 64 65 57 53 52 49 50 48 47 49 59 62 61 60 49 48 55 60 55 53 58 53 51 52 47 44 41 45 57 57 57 58 60 63 62 64
48 53 68 68 59 50 51 56 61 62 63 60 59 56 52 52 48 47 49 56 65 61 55 51 46 44 52 61 61 57 51 51 48 46 45 43 49 58 60 59 59 59 61 64 65
48 50 65 67 52 51 53 61 63 63 61 60 58 58 56 50 47 51 56 66 65 60 55 51 45 41 49 53 57 53 56 47 49 49 45 44 48 58 59 60 61 58 62 62 62
50 53 58 60 55 53 51 55 56 66 64 63 60 59 54 51 52 50 57 65 66 62 67 59 43 43 39 45 50 50 55 55 49 48 45 49 51 53 55 55 58 60 62 62 61
52 51 53 51 55 53 54 56 58 56 59 59 57 57 53 46 48 50 56 58 65 66 59 53 45 45 48 53 55 55 57 57 51 51 51 51 51 53 56 57 59 61 62 62 61
52 51 52 50 50 53 50 50 57 57 56 54 53 57 54 48 47 48 52 51 54 57 53 50 44 46 46 55 57 53 57 58 55 55 51 55 53 60 60 59 60 61 62 62 62
54 54 54 51 51 51 49 54 57 58 60 60 59 54 54 55 56 55 55 53 50 51 51 49 45 42 38 52 54 46 53 53 56 56 55 50 56 60 57 57 58 60 62 62 62
MSLP
1016.45 1016.21 1015.97 1015.77 1015.52 1015.33 1015.17 1015.01 1014.86 1014.75 1014.49 1014.25 1014.09 1013.83 1013.59 1013.35 1012.96 1012.86 1011.93 1009.37 1009.22 1009.05 1009.22 1009.93 1010.36 1010.51 1010.60 1010.79 1010.63 1011.00 1011.74 1011.57 1011.31 1010.84 1010.73 1010.29 1010.24 1010.31 1010.09 1010.40 1011.33 1011.62 1012.57 1013.91 1015.03
1016.23 1015.93 1015.69 1015.52 1015.39 1015.17 1015.03 1014.93 1014.79 1014.63 1014.46 1014.28 1014.01 1013.73 1013.45 1013.19 1012.91 1011.81 1008.54 1008.58 1008.71 1008.89 1009.30 1009.77 1010.23 1010.47 1010.73 1010.63 1010.52 1010.80 1011.19 1011.12 1010.64 1010.80 1010.94 1010.73 1010.78 1010.59 1010.49 1011.28 1012.00 1012.43 1013.52 1014.40 1015.30
1016.20 1015.97 1015.64 1015.36 1015.15 1014.97 1014.81 1014.67 1014.56 1014.40 1014.26 1014.13 1013.98 1013.60 1013.38 1013.12 1012.34 1008.72 1006.99 1007.94 1008.43 1008.74 1009.16 1009.46 1009.76 1010.17 1010.44 1010.41 1010.15 1010.16 1010.36 1010.21 1010.08 1010.34 1010.50 1010.78 1011.05 1011.31 1010.86 1011.72 1011.65 1012.36 1013.56 1014.65 1015.35
1016.00 1015.79 1015.57 1015.32 1015.02 1014.74 1014.53 1014.41 1014.28 1014.22 1014.11 1013.97 1013.87 1013.57 1013.32 1013.05 1010.58 1007.01 1006.83 1007.53 1008.22 1008.82 1009.46 1009.59 1009.91 1010.27 1010.24 1010.10 1009.65 1009.79 1009.33 1009.50 1009.66 1009.98 1010.65 1010.68 1011.11 1011.54 1011.69 1012.18 1012.20 1012.54 1013.39 1014.44 1015.22
1015.50 1015.27 1015.19 1015.01 1014.81 1014.62 1014.38 1014.17 1014.09 1013.99 1013.94 1013.85 1013.73 1013.45 1013.26 1012.17 1009.14 1006.73 1006.57 1007.48 1008.28 1008.86 1009.11 1009.35 1009.80 1010.05 1010.02 1009.70 1009.41 1009.37 1009.05 1009.32 1009.38 1009.53 1009.99 1010.52 1011.25 1011.62 1012.27 1012.41 1012.50 1012.99 1013.80 1014.43 1015.09
1015.52 1015.07 1014.64 1014.55 1014.44 1014.24 1014.12 1014.02 1013.87 1013.75 1013.70 1013.59 1013.47 1013.42 1013.18 1010.74 1006.92 1006.83 1007.23 1007.84 1008.19 1008.58 1009.02 1009.09 1009.26 1009.51 1009.70 1009.46 1009.14 1008.52 1009.06 1009.48 1009.68 1009.88 1010.26 1011.21 1012.37 1012.25 1012.13 1011.89 1012.41 1012.93 1013.63 1014.31 1014.70
1015.42 1015.13 1014.93 1014.56 1014.10 1013.97 1013.88 1013.75 1013.56 1013.53 1013.44 1013.42 1013.17 1013.18 1012.49 1008.77 1007.12 1007.15 1007.45 1007.84 1007.96 1008.36 1008.89 1008.91 1009.00 1009.27 1009.55 1009.13 1008.53 1008.95 1009.81 1009.85 1010.23 1010.38 1010.93 1011.35 1012.23 1012.11 1011.74 1011.88 1012.33 1012.99 1013.54 1014.11 1014.55
1015.11 1014.65 1014.26 1013.99 1013.78 1013.67 1013.63 1013.47 1013.36 1013.18 1013.16 1013.24 1013.05 1012.93 1011.00 1007.80 1007.38 1007.50 1007.58 1007.92 1008.21 1008.42 1008.69 1008.72 1008.99 1009.41 1009.42 1008.98 1009.10 1009.68 1010.23 1010.61 1010.49 1010.66 1011.41 1011.43 1012.42 1012.41 1011.99 1012.03 1012.67 1012.91 1013.54 1014.00 1014.42
1014.68 1014.34 1014.04 1013.74 1013.57 1013.35 1013.20 1013.26 1013.07 1012.79 1012.61 1013.01 1013.03 1012.42 1009.70 1007.45 1007.42 1006.80 1007.21 1007.46 1008.03 1008.60 1008.69 1008.52 1008.85 1009.39 1009.38 1009.65 1010.02 1010.25 1010.59 1010.79 1010.67 1010.73 1010.93 1011.79 1012.77 1012.79 1012.49 1012.51 1012.78 1012.91 1013.39 1013.82 1014.56
1014.57 1014.04 1013.75 1013.48 1013.32 1013.12 1012.87 1012.60 1012.77 1012.69 1012.67 1012.99 1012.42 1012.08 1008.78 1007.16 1006.39 1006.27 1006.76 1007.22 1007.71 1008.30 1008.57 1008.63 1009.14 1009.70 1010.16 1010.27 1010.79 1010.77 1010.85 1010.79 1010.56 1010.87 1011.00 1012.00 1012.85 1013.00 1012.83 1013.06 1013.16 1013.42 1013.20 1013.71 1014.30
1014.43 1013.97 1013.50 1013.21 1013.09 1013.03 1012.74 1012.75 1013.15 1012.81 1012.23 1010.71 1009.80 1009.08 1007.51 1006.39 1005.90 1006.01 1006.43 1007.12 1007.25 1007.71 1008.41 1008.84 1009.56 1009.76 1010.12 1010.18 1010.27 1010.33 1010.57 1010.54 1010.78 1010.79 1011.62 1012.32 1013.22 1013.15 1013.24 1013.53 1014.00 1013.98 1013.80 1013.92 1014.17
1014.20 1013.90 1013.60 1013.26 1012.91 1012.99 1013.07 1012.31 1010.98 1010.66 1010.22 1008.80 1008.60 1008.06 1006.84 1006.43 1006.34 1005.94 1006.15 1007.12 1007.46 1008.07 1008.41 1009.11 1009.29 1009.12 1009.41 1009.78 1010.08 1010.17 1010.36 1010.92 1011.40 1011.53 1011.99 1013.12 1013.64 1013.94 1014.00 1014.09 1013.86 1014.04 1014.33 1014.24 1014.46
1014.04 1013.57 1013.08 1012.90 1012.70 1012.84 1012.21 1010.88 1009.48 1009.58 1009.83 1007.95 1007.51 1006.78 1005.75 1006.03 1006.01 1005.95 1006.24 1006.71 1007.38 1008.14 1008.56 1008.96 1008.71 1008.57 1009.03 1009.38 1009.72 1009.84 1010.04 1010.51 1011.28 1012.07 1012.46 1013.26 1014.33 1014.17 1013.97 1014.24 1014.69 1014.74 1014.91 1014.69 1014.58
1013.55 1013.36 1013.10 1012.63 1013.03 1011.69 1010.98 1009.69 1009.26 1009.25 1009.50 1007.53 1006.43 1005.19 1005.27 1005.39 1005.64 1005.39 1005.77 1006.44 1007.11 1007.86 1008.57 1008.62 1008.17 1008.31 1008.64 1009.02 1009.29 1009.47 1009.02 1009.72 1011.05 1012.05 1012.91 1013.28 1014.34 1014.45 1014.32 1014.43 1014.52 1014.73 1014.98 1015.03 1014.96
1013.26 1012.93 1012.59 1012.58 1012.00 1011.32 1009.65 1008.95 1008.75 1009.10 1008.73 1006.62 1005.31 1004.06 1004.76 1005.34 1005.31 1005.35 1005.54 1006.06 1007.00 1007.71 1008.47 1008.37 1007.94 1007.94 1008.08 1008.11 1008.50 1008.72 1008.77 1009.53 1011.08 1012.36 1013.04 1013.81 1014.03 1013.99 1014.19 1014.48 1014.17 1014.11 1014.74 1015.05 1015.38
1012.61 1012.68 1012.57 1012.22 1012.11 1010.09 1009.04 1008.63 1008.67 1009.65 1008.20 1006.34 1005.13 1004.80 1005.22 1005.50 1005.42 1005.65 1005.93 1006.19 1006.91 1007.74 1008.00 1008.04 1007.43 1007.39 1007.03 1006.98 1007.70 1008.54 1009.59 1010.49 1011.95 1012.99 1013.67 1013.28 1013.71 1013.61 1013.38 1013.40 1013.83 1014.26 1014.81 1015.15 1015.77
1012.14 1011.85 1012.38 1011.67 1010.24 1009.25 1008.73 1009.09 1009.77 1009.34 1008.21 1007.23 1006.06 1005.67 1005.81 1006.11 1006.20 1006.20 1006.66 1007.10 1007.63 1008.30 1008.50 1008.10 1007.29 1006.50 1006.25 1006.73 1007.29 1008.15 1009.94 1011.62 1013.11 1014.06 1013.85 1013.12 1013.84 1013.14 1013.28 1012.98 1013.17 1013.54 1014.18 1015.32 1015.87
1011.70 1010.91 1010.64 1010.15 1009.35 1009.06 1009.44 1010.04 1010.00 1009.32 1008.52 1007.42 1006.75 1006.34 1006.84 1007.03 1007.10 1007.02 1007.37 1008.00 1008.21 1008.43 1009.00 1008.74 1007.61 1006.40 1005.85 1006.09 1006.75 1007.94 1008.74 1010.36 1011.86 1013.16 1013.62 1013.67 1013.70 1013.66 1013.51 1013.22 1013.18 1013.63 1014.74 1015.37 1016.10
1010.92 1010.51 1010.28 1008.55 1008.95 1009.38 1009.95 1010.26 1009.95 1009.31 1008.55 1007.78 1007.42 1007.80 1008.32 1007.96 1008.14 1008.33 1008.68 1008.85 1008.67 1008.64 1009.01 1008.87 1007.93 1006.54 1005.87 1005.52 1005.98 1007.37 1008.34 1008.59 1010.57 1011.96 1012.89 1013.36 1013.84 1013.88 1014.13 1014.18 1014.17 1014.54 1015.10 1015.66 1015.91
1011.34 1010.80 1009.23 1007.92 1008.18 1008.84 1009.97 1010.17 1009.61 1008.74 1008.10 1007.91 1008.26 1008.54 1009.23 1009.25 1009.17 1009.18 1009.26 1009.02 1008.70 1008.56 1008.59 1009.01 1008.74 1007.28 1006.30 1005.65 1006.01 1006.19 1007.15 1008.86 1010.15 1011.83 1012.69 1013.49 1013.60 1013.72 1014.31 1014.54 1014.78 1015.16 1015.48 1015.79 1016.00
1011.30 1010.54 1008.15 1007.72 1007.82 1009.40 1010.24 1009.73 1008.83 1007.96 1007.95 1008.08 1008.35 1008.84 1009.37 1009.65 1009.95 1010.07 1009.89 1009.16 1008.68 1008.47 1008.73 1009.59 1009.66 1008.47 1007.47 1007.20 1007.11 1006.97 1007.41 1008.62 1009.84 1011.28 1012.06 1013.55 1014.10 1014.25 1014.50 1014.85 1015.10 1015.36 1015.69 1016.03 1016.19
1011.64 1010.53 1008.07 1008.04 1008.82 1009.93 1009.83 1008.89 1008.08 1007.78 1007.65 1007.87 1008.17 1008.62 1009.12 1009.52 1010.01 1010.07 1009.79 1009.20 1008.67 1008.69 1009.17 1010.02 1010.72 1010.31 1009.13 1008.15 1007.81 1007.76 1008.07 1008.41 1009.86 1011.41 1012.44 1013.52 1014.53 1014.31 1014.46 1015.01 1015.15 1015.47 1015.65 1016.25 1016.60
1011.97 1010.92 1008.47 1008.37 1009.15 1009.78 1009.38 1008.66 1008.19 1007.80 1007.76 1007.98 1008.44 1008.73 1009.17 1009.64 1010.00 1009.87 1009.47 1008.60 1008.62 1008.81 1009.21 1010.17 1011.43 1011.35 1010.31 1009.70 1008.87 1009.03 1008.93 1009.06 1009.52 1010.25 1012.09 1013.53 1014.78 1014.90 1015.00 1015.12 1015.21 1015.44 1015.78 1016.28 1016.36
1012.24 1011.37 1009.69 1008.90 1009.34 1009.50 1009.44 1008.89 1008.64 1008.17 1008.48 1008.47 1008.72 1008.73 1009.29 1009.91 1009.98 1009.87 1009.52 1008.79 1008.69 1008.83 1009.51 1009.81 1012.33 1012.52 1012.12 1011.88 1011.28 1010.45 1009.58 1009.16 1009.81 1010.80 1012.00 1012.93 1014.12 1015.11 1015.17 1015.26 1015.63 1015.90 1016.24 1016.68 1016.77
1012.49 1012.32 1011.36 1010.99 1010.25 1009.81 1009.16 1009.11 1009.07 1009.17 1009.09 1009.15 1009.78 1009.88 1009.78 1010.35 1010.61 1010.29 1009.96 1009.47 1009.17 1009.18 1010.05 1010.97 1012.52 1012.87 1012.61 1012.02 1011.34 1010.48 1009.76 1009.43 1009.83 1010.21 1011.10 1012.54 1013.18 1014.06 1014.85 1015.19 1015.69 1016.09 1016.50 1017.00 1017.22
1012.97 1012.65 1011.64 1011.22 1010.77 1010.01 1009.59 1010.02 1009.70 1009.80 1010.10 1010.60 1010.78 1010.64 1010.39 1010.96 1011.06 1010.87 1010.59 1010.25 1010.20 1010.37 1011.00 1011.89 1012.98 1013.17 1013.06 1012.23 1011.32 1010.54 1009.90 1009.88 1009.84 1010.43 1011.33 1012.49 1013.58 1014.23 1015.01 1015.56 1015.83 1016.05 1016.55 1016.93 1017.18
1012.90 1012.38 1012.11 1011.75 1011.23 1010.75 1010.69 1010.22 1010.18 1010.05 1010.70 1010.61 1010.76 1010.90 1010.98 1011.11 1011.12 1010.81 1010.84 1010.85 1010.58 1010.95 1011.83 1012.66 1013.39 1013.94 1014.18 1012.96 1011.97 1011.79 1010.88 1010.51 1010.45 1010.58 1011.06 1012.60 1012.78 1014.13 1015.10 1015.53 1015.80 1015.96 1016.47 1017.23 1017.68
Wind_Speed
13 13 13 12 12 12 12 11 11 10 10 11 11 11 11 12 11 2 7 10 8 6 10 7 2 2 1 2 4 5 4 1 3 8 4 5 10 1 5 20 5 1 8 15 18
14 14 13 13 12 11 11 12 11 11 10 11 11 11 11 11 2 8 12 12 11 12 7 8 5 6 2 3 3 3 3 9 7 5 11 8 0 6 11 13 14 17 15 19 18
15 15 14 13 12 12 11 12 12 12 11 10 11 11 10 7 4 9 8 17 16 11 3 5 5 6 1 3 3 4 4 6 7 8 14 12 8 4 17 12 21 24 23 20 18
15 15 15 15 14 12 12 12 12 12 11 10 10 10 11 2 3 1 6 20 16 7 6 6 4 5 3 4 5 2 8 3 1 11 8 14 14 7 10 4 14 21 23 20 19
15 15 15 15 15 14 13 12 12 11 11 9 8 8 4 1 10 4 7 19 10 9 9 7 5 4 3 3 4 5 3 4 2 13 11 10 10 8 12 15 16 20 21 20 16
15 14 13 13 15 13 13 12 11 11 10 7 3 4 2 3 4 4 11 11 6 6 6 5 8 6 3 4 5 3 5 7 3 5 6 9 9 8 9 18 22 22 20 18 17
15 15 16 14 13 13 13 12 11 10 8 5 2 2 1 12 5 6 10 6 8 6 7 4 3 4 2 7 3 8 5 7 4 2 5 9 5 13 8 19 23 21 19 16 16
15 14 13 13 12 13 13 12 11 8 5 3 3 2 9 5 3 2 3 4 3 3 1 4 3 2 3 4 3 5 5 3 4 6 6 4 4 7 6 12 21 21 17 15 16
13 14 13 12 12 11 11 13 11 6 6 7 2 1 10 5 4 7 7 4 6 3 2 3 4 4 1 5 5 6 1 2 3 6 9 3 2 4 6 13 10 17 16 15 11
14 13 13 11 11 10 12 10 0 3 6 5 5 2 6 1 4 5 5 5 4 6 4 4 3 4 3 5 5 3 2 4 4 5 4 7 2 4 6 15 16 5 15 18 16
15 14 12 11 10 8 6 3 3 1 2 10 6 4 5 3 3 3 6 5 1 5 5 3 4 5 6 5 4 1 2 3 4 4 4 6 4 9 3 12 10 7 5 14 16
13 15 14 13 10 6 1 3 4 1 8 13 6 7 5 3 3 2 8 5 3 3 3 6 3 6 4 7 4 3 2 4 4 3 4 3 4 1 2 4 15 15 2 9 13
13 12 12 10 8 1 3 7 4 3 1 7 6 5 5 8 6 5 9 4 4 2 3 6 4 6 4 1 2 3 4 5 6 8 9 12 1 4 2 5 12 11 6 4 12
13 12 10 14 2 1 5 3 7 6 5 6 4 6 4 4 1 4 7 6 2 8 5 4 4 3 4 4 7 3 8 9 13 4 5 1 1 5 4 5 16 21 11 2 5
16 12 10 7 3 2 4 6 1 5 3 2 3 1 4 9 5 2 2 4 6 4 6 7 2 3 5 8 7 9 5 7 6 5 6 0 5 5 11 10 16 17 16 7 4
18 12 11 2 1 7 9 6 5 7 2 6 1 1 6 2 1 3 4 5 3 4 1 7 4 5 9 5 8 8 9 11 6 3 2 8 6 5 13 14 17 17 15 9 5
19 12 6 4 4 2 4 5 6 4 5 6 3 2 3 5 2 5 7 5 5 4 4 6 4 4 5 3 2 6 6 4 4 2 6 5 5 2 9 11 17 21 22 14 2
20 18 5 6 4 2 4 6 3 2 4 5 4 2 4 2 1 2 5 3 2 2 3 3 7 5 4 8 9 10 10 8 6 6 3 1 4 3 5 8 9 8 14 10 4
19 2 2 4 10 1 6 4 5 4 3 6 3 7 7 6 5 4 2 3 2 3 5 4 6 3 4 4 8 5 4 6 8 1 4 4 3 5 9 11 11 12 12 9 5
2 4 5 5 9 5 6 4 4 4 2 3 4 4 3 7 5 5 3 2 1 2 5 2 3 2 6 1 3 9 7 3 4 6 3 1 3 5 9 11 12 10 9 7 5
3 3 3 5 3 6 2 6 5 6 4 1 2 3 2 4 3 2 1 3 2 3 7 2 2 7 3 4 1 4 2 6 7 3 6 3 4 3 5 10 11 10 10 6 5
2 3 3 2 4 1 2 5 3 4 2 3 4 3 2 3 3 2 2 4 3 4 4 2 4 3 5 6 5 1 1 3 7 3 4 5 1 9 11 7 9 9 9 8 4
2 3 4 3 3 3 4 1 4 5 5 3 2 1 3 2 4 2 2 4 2 2 4 2 3 4 8 9 8 7 5 3 4 3 3 7 2 1 5 7 5 6 8 7 7
3 4 5 4 2 6 3 2 2 6 6 4 2 3 2 4 7 3 5 3 1 2 5 10 3 5 6 5 4 7 5 2 4 4 6 3 9 8 8 7 6 7 7 7 8
2 0 3 3 4 3 4 2 5 4 2 9 8 7 2 3 3 5 3 4 5 7 5 5 5 4 5 5 2 4 5 6 6 5 7 12 19 16 13 11 9 9 9 9 8
3 3 4 1 3 3 6 5 5 4 5 4 7 5 9 5 2 4 2 1 3 3 3 3 2 1 1 5 8 5 9 8 5 10 9 18 9 8 12 11 11 12 11 9 9
3 2 4 4 4 5 2 3 2 6 7 3 6 4 7 4 3 5 4 2 1 4 2 3 4 3 1 3 5 7 9 7 3 5 18 11 10 18 16 14 13 13 13 12 10
Wind_Direction
330 330 330 330 329 326 324 324 323 325 323 323 320 321 323 325 317 129 233 215 186 217 132 122 143 234 164 199 218 148 110 112 273 128 59 62 120 175 82 122 130 74 128 136 136
328 328 326 325 323 322 320 319 319 321 322 320 316 318 319 331 301 249 238 191 209 170 133 151 174 162 167 205 197 150 145 177 220 132 151 179 102 130 128 135 100 103 114 132 142
329 325 323 321 320 319 318 318 318 317 318 318 315 315 316 328 324 246 187 187 185 176 139 153 116 145 221 156 227 176 197 179 198 166 165 167 151 129 143 135 146 147 145 147 151
325 324 321 319 317 316 316 316 315 314 313 314 313 314 310 264 198 34 167 180 178 169 159 140 133 156 210 201 190 151 241 165 246 181 153 169 148 141 122 191 147 143 150 151 157
324 322 320 317 314 312 312 312 311 310 309 307 307 315 323 225 253 307 127 154 142 147 161 151 136 152 200 229 172 235 191 140 20 141 155 112 154 118 154 183 152 145 156 161 162
323 317 316 314 310 307 307 306 307 306 305 300 292 310 290 254 243 132 126 139 150 134 162 159 167 198 280 254 189 200 131 114 79 102 106 104 123 159 181 172 153 157 162 167 167
329 326 325 319 314 309 306 302 300 302 298 279 240 209 325 241 1 125 128 166 159 156 147 210 138 83 330 321 293 74 75 92 96 90 103 137 117 164 157 152 157 163 165 168 171
334 330 325 318 313 311 307 300 295 295 278 228 213 163 247 259 272 175 177 142 163 170 69 137 151 168 212 253 44 77 76 149 173 165 150 93 154 196 167 169 164 168 167 173 176
331 331 327 322 314 312 301 297 294 288 236 174 119 146 268 307 200 205 171 167 147 143 204 247 134 187 102 101 25 1 171 221 286 204 153 90 120 231 177 158 190 167 172 175 161
333 334 326 322 317 318 310 285 221 83 112 191 262 330 271 194 211 177 179 150 149 143 142 136 87 121 48 78 184 148 149 225 224 194 150 114 176 193 171 169 187 118 167 173 168
335 334 328 320 315 328 352 106 17 258 253 196 198 237 270 283 270 153 151 137 75 80 140 155 101 188 193 162 147 226 230 288 51 144 116 139 139 182 197 173 190 181 87 168 175
324 334 332 324 315 318 305 171 228 242 305 226 240 276 280 97 10 289 109 148 132 161 109 32 208 215 130 152 159 197 312 72 51 175 117 114 122 142 174 173 168 217 113 182 168
322 321 319 319 317 207 201 224 199 11 234 293 186 198 216 139 183 238 133 147 138 121 127 154 220 121 133 166 169 214 201 174 141 117 63 121 59 172 240 151 177 209 208 336 169
314 316 311 322 289 212 263 208 232 170 52 280 235 268 146 134 265 190 169 147 89 180 150 218 243 187 180 218 149 263 200 201 151 147 161 255 142 247 186 181 178 194 205 186 190
317 318 315 303 295 198 269 287 149 64 60 331 222 161 119 138 148 244 155 63 150 157 107 244 200 171 205 210 155 232 233 224 127 100 109 354 91 276 157 197 193 186 205 239 350
312 318 327 118 252 248 288 312 63 40 349 333 183 185 122 219 60 83 124 65 144 166 187 231 222 183 211 231 164 118 69 48 53 65 16 184 173 212 189 189 189 187 201 249 352
308 306 292 300 241 209 290 31 49 107 331 335 337 63 156 198 139 142 158 164 161 104 304 321 255 238 168 188 140 110 83 38 45 15 223 163 131 323 200 175 190 181 197 197 257
313 306 220 217 250 52 49 48 93 266 268 287 320 335 127 112 355 46 100 158 274 73 120 187 329 186 174 176 175 184 160 151 167 189 203 175 218 335 60 92 93 152 191 166 219
315 330 248 250 197 126 73 56 198 201 266 308 17 54 6 0 104 72 63 138 78 181 174 154 270 307 252 184 139 193 161 194 108 112 109 171 135 120 102 94 99 103 121 151 179
3 347 273 147 162 78 71 240 228 217 241 7 84 38 82 346 48 46 26 299 166 107 141 306 280 277 285 187 84 155 171 98 26 150 167 241 205 161 154 133 130 114 127 132 134
37 26 268 190 93 54 165 234 253 225 169 92 112 82 148 124 72 70 316 279 274 18 97 78 78 292 4 30 329 349 104 52 109 113 144 152 240 338 153 135 129 133 137 143 155
31 50 320 157 68 34 181 203 256 341 126 77 82 111 80 110 110 113 191 234 82 266 70 56 130 286 240 302 304 279 60 122 127 177 73 115 315 330 132 144 129 129 117 127 141
87 248 294 116 154 270 293 261 47 28 26 89 103 111 79 161 98 155 226 256 120 40 120 112 12 8 349 356 356 33 334 77 83 75 139 129 206 48 119 137 128 133 126 120 105
70 35 329 46 51 159 184 114 132 20 52 12 74 81 85 38 358 91 357 319 141 124 87 92 90 154 161 187 218 305 300 353 126 113 154 173 139 183 173 147 132 130 125 119 115
26 335 176 335 327 351 114 101 74 32 64 25 18 9 112 86 29 33 340 355 359 5 54 98 142 174 219 233 273 264 312 310 189 174 147 175 172 176 168 157 156 137 124 122 110
70 43 357 225 294 36 13 16 108 55 58 357 96 39 50 70 12 196 246 222 231 24 83 13 149 186 202 265 13 337 353 357 61 108 75 139 146 157 158 146 156 148 138 128 114
313 339 104 307 2 83 239 169 156 114 9 104 129 75 26 348 262 245 189 320 178 126 86 84 120 92 112 296 26 6 340 327 321 80 138 156 171 159 157 164 166 154 139 131 111